This is the latest recevied weather packets stored in our database for station/object OE-11121. If no packets are shown the sender has not sent any weather packets the latest 10 day(s).
| Time | Temp. | Humidity | Pressure | Rain* | Wind** | Luminosity | Snow |
|---|---|---|---|---|---|---|---|
| 1787864732 | 27.78° C | 45% | 1012.5 hPa | 0 mm | - | 0 W/m² | - |
| 1787864132 | 27.78° C | 45% | 1012.4 hPa | 0 mm | - | 0 W/m² | - |
| 1787863306 | 27.78° C | 45% | 1012.5 hPa | 0 mm | - | 0 W/m² | - |
| 1787862933 | 28.33° C | 42% | 1012.3 hPa | 0 mm | - | 0 W/m² | - |
| 1787862333 | 28.33° C | 43% | 1012.3 hPa | 0 mm | - | 0 W/m² | - |
| 1787861506 | 28.33° C | 43% | 1012.4 hPa | 0 mm | - | 0 W/m² | - |
| 1787861133 | 28.33° C | 42% | 1012.2 hPa | 0 mm | - | 0 W/m² | - |
| 1787860533 | 28.89° C | 41% | 1012.1 hPa | 0 mm | - | 0 W/m² | - |
| 1787859707 | 28.89° C | 41% | 1012 hPa | 0 mm | - | 0 W/m² | - |
| 1787859333 | 28.89° C | 41% | 1011.7 hPa | 0 mm | - | 0 W/m² | - |
| 1787858733 | 28.89° C | 41% | 1011.6 hPa | 0 mm | - | 0 W/m² | - |
| 1787857906 | 28.89° C | 41% | 1011.6 hPa | 0 mm | - | 0 W/m² | - |
| 1787857533 | 28.33° C | 42% | 1011.4 hPa | 0 mm | - | 0 W/m² | - |
| 1787856933 | 28.89° C | 41% | 1011.6 hPa | 0 mm | - | 0 W/m² | - |
| 1787856106 | 28.89° C | 40% | 1011.5 hPa | 0 mm | - | 0 W/m² | - |
| 1787855732 | 28.89° C | 40% | 1011 hPa | 0 mm | - | 0 W/m² | - |
| 1787855133 | 28.89° C | 40% | 1011.3 hPa | 0 mm | - | 0 W/m² | - |
| 1787854306 | 29.44° C | 38% | 1010.9 hPa | 0 mm | - | 0 W/m² | - |
| 1787853933 | 29.44° C | 38% | 1010.7 hPa | 0 mm | - | 12 W/m² | - |
| 1787852745 | 29.44° C | 38% | 1010.8 hPa | 0 mm | - | 36 W/m² | - |
| 1787852132 | 29.44° C | 37% | 1010.5 hPa | 0 mm | - | 36 W/m² | - |
| 1787851533 | 29.44° C | 37% | 1010.4 hPa | 0 mm | - | 48 W/m² | - |
| 1787850706 | 30° C | 36% | 1010.2 hPa | 0 mm | - | 72 W/m² | - |
| 1787850332 | 29.44° C | 37% | 1010.3 hPa | 0 mm | - | 108 W/m² | - |
| 1787849733 | 30° C | 36% | 1010.2 hPa | 0 mm | - | 144 W/m² | - |
* Rain latest hour (hover to see other rain measurements)
** Current wind speed in m/s (hover to see current wind gust speed)